Previsão horária em Ploshchi

Hoje, 8 Março, Segunda-feira

Tempo Temperatura Precipitação Vento Pressão Humidade
00:00 -6°C° 0 mm 2 m/s 694 mmHg 91%
01:00 -6°C° 0 mm 2 m/s 694 mmHg 90%
02:00 -9°C° 0 mm 2 m/s 693 mmHg 100%
03:00 -9°C° 0 mm 2 m/s 693 mmHg 96%
04:00 -7°C° 0 mm 2 m/s 692 mmHg 89%
05:00 -7°C° 0 mm 2 m/s 692 mmHg 88%
06:00 -7°C° 0 mm 2 m/s 693 mmHg 88%
07:00 -7°C° 0 mm 2 m/s 693 mmHg 89%
08:00 -7°C° 0 mm 2 m/s 693 mmHg 88%
09:00 -5°C° 0 mm 2 m/s 693 mmHg 90%
10:00 -3°C° 0 mm 2 m/s 694 mmHg 92%
11:00 -2°C° 0 mm 3 m/s 694 mmHg 91%
12:00 -1°C° 0 mm 2 m/s 694 mmHg 89%
13:00 -1°C° 0 mm 2 m/s 694 mmHg 90%
14:00 -1°C° 0.1 mm 3 m/s 694 mmHg 87%
15:00 -1°C° 0.1 mm 3 m/s 694 mmHg 93%
16:00 -4°C° 0.3 mm 3 m/s 694 mmHg 100%
17:00 -5°C° 1 mm 4 m/s 694 mmHg 100%
18:00 -7°C° 1.1 mm 5 m/s 695 mmHg 100%
19:00 -8°C° 0.1 mm 4 m/s 695 mmHg 100%
20:00 -9°C° 0.1 mm 4 m/s 695 mmHg 100%
21:00 -7°C° 0 mm 2 m/s 696 mmHg 100%
22:00 -7°C° 0 mm 1 m/s 696 mmHg 100%
23:00 -8°C° 0 mm 1 m/s 696 mmHg 100%

Amanhã, 9 Março, Terça-feira

Tempo Temperatura Precipitação Vento Pressão Humidade
00:00 -9°C° 0 mm 1 m/s 696 mmHg 96%
01:00 -9°C° 0 mm 1 m/s 696 mmHg 97%
02:00 -10°C° 0 mm 1 m/s 696 mmHg 100%
03:00 -10°C° 0.1 mm 1 m/s 696 mmHg 100%
04:00 -10°C° 0.1 mm 1 m/s 695 mmHg 100%
05:00 -11°C° 0.1 mm 1 m/s 696 mmHg 100%
06:00 -11°C° 0 mm 1 m/s 695 mmHg 100%
07:00 -11°C° 0 mm 1 m/s 696 mmHg 100%
08:00 -11°C° 0 mm 1 m/s 696 mmHg 100%
09:00 -10°C° 0 mm 1 m/s 697 mmHg 98%
10:00 -9°C° 0 mm 1 m/s 698 mmHg 100%
11:00 -7°C° 0 mm 0 m/s 698 mmHg 100%
12:00 -6°C° 0 mm 0 m/s 698 mmHg 100%
13:00 -5°C° 0 mm 0 m/s 699 mmHg 100%
14:00 -4°C° 0 mm 0 m/s 699 mmHg 97%
15:00 -4°C° 0 mm 0 m/s 699 mmHg 92%
16:00 -3°C° 0 mm 1 m/s 698 mmHg 90%
17:00 -5°C° 0 mm 2 m/s 698 mmHg 100%
18:00 -7°C° 0 mm 2 m/s 698 mmHg 100%
19:00 -8°C° 0 mm 2 m/s 698 mmHg 100%
20:00 -8°C° 0 mm 1 m/s 698 mmHg 100%
21:00 -8°C° 0 mm 1 m/s 698 mmHg 100%
22:00 -9°C° 0 mm 1 m/s 698 mmHg 100%
23:00 -9°C° 0 mm 1 m/s 698 mmHg 100%

Depois de amanhã, 10 Março, Quarta-feira

Tempo Temperatura Precipitação Vento Pressão Humidade
00:00 -10°C° 0 mm 1 m/s 697 mmHg 100%
01:00 -9°C° 0 mm 1 m/s 697 mmHg 100%
02:00 -9°C° 0 mm 1 m/s 697 mmHg 100%
03:00 -9°C° 0 mm 1 m/s 696 mmHg 100%
04:00 -9°C° 0 mm 1 m/s 696 mmHg 100%
05:00 -10°C° 0 mm 2 m/s 696 mmHg 100%
06:00 -10°C° 0 mm 2 m/s 695 mmHg 100%
07:00 -10°C° 0 mm 2 m/s 695 mmHg 100%
08:00 -9°C° 0 mm 2 m/s 695 mmHg 100%
09:00 -7°C° 0.1 mm 1 m/s 696 mmHg 100%
10:00 -5°C° 0.8 mm 0 m/s 696 mmHg 100%
11:00 -3°C° 0.1 mm 0 m/s 696 mmHg 100%
12:00 -1°C° 0 mm 0 m/s 697 mmHg 100%
13:00 +1°C° 0 mm 1 m/s 697 mmHg 100%
14:00 -1°C° 0 mm 3 m/s 697 mmHg 100%
15:00 -1°C° 0.1 mm 3 m/s 697 mmHg 100%
16:00 -1°C° 0.3 mm 3 m/s 696 mmHg 100%
17:00 -2°C° 0.2 mm 3 m/s 696 mmHg 100%
18:00 -2°C° 0.1 mm 3 m/s 696 mmHg 100%
19:00 -3°C° 0.1 mm 2 m/s 697 mmHg 100%
20:00 -3°C° 0.4 mm 2 m/s 697 mmHg 100%
21:00 -4°C° 0.3 mm 2 m/s 697 mmHg 100%
22:00 -4°C° 0.2 mm 2 m/s 697 mmHg 100%
23:00 -3°C° 0.1 mm 1 m/s 697 mmHg 100%

11 Março, Quinta-feira

Tempo Temperatura Precipitação Vento Pressão Humidade
00:00 -5°C° 0.1 mm 0 m/s 698 mmHg 100%
01:00 -5°C° 0 mm 0 m/s 698 mmHg 100%
02:00 -6°C° 0 mm 0 m/s 698 mmHg 100%
03:00 -6°C° 0 mm 1 m/s 698 mmHg 100%
04:00 -7°C° 0 mm 1 m/s 697 mmHg 100%
05:00 -7°C° 0 mm 1 m/s 697 mmHg 100%
06:00 -8°C° 0 mm 1 m/s 697 mmHg 100%
07:00 -9°C° 0 mm 2 m/s 698 mmHg 100%
08:00 -8°C° 0 mm 2 m/s 698 mmHg 100%
09:00 -8°C° 0 mm 2 m/s 698 mmHg 100%
10:00 -6°C° 0 mm 2 m/s 699 mmHg 100%
11:00 -2°C° 0 mm 1 m/s 700 mmHg 100%
12:00 -1°C° 0 mm 2 m/s 700 mmHg 92%
13:00 -1°C° 0 mm 4 m/s 700 mmHg 84%
14:00 -1°C° 0 mm 4 m/s 700 mmHg 84%
15:00 -1°C° 0 mm 4 m/s 700 mmHg 83%
16:00 -1°C° 0 mm 4 m/s 699 mmHg 82%
17:00 0°C° 0 mm 3 m/s 699 mmHg 87%
18:00 -1°C° 0 mm 2 m/s 698 mmHg 90%
19:00 -2°C° 0 mm 3 m/s 697 mmHg 89%
20:00 -1°C° 0 mm 3 m/s 697 mmHg 87%
21:00 -1°C° 0 mm 3 m/s 697 mmHg 87%
22:00 -2°C° 0 mm 4 m/s 696 mmHg 87%
23:00 -2°C° 0 mm 5 m/s 696 mmHg 90%

12 Março, Sexta-feira

Tempo Temperatura Precipitação Vento Pressão Humidade
00:00 -4°C° 0.1 mm 5 m/s 696 mmHg 91%
01:00 -2°C° 0 mm 5 m/s 695 mmHg 89%
02:00 -2°C° 0 mm 5 m/s 695 mmHg 90%
03:00 -2°C° 0 mm 5 m/s 695 mmHg 88%
04:00 -2°C° 0 mm 5 m/s 694 mmHg 88%
05:00 -2°C° 0 mm 4 m/s 694 mmHg 89%
06:00 -2°C° 0 mm 4 m/s 693 mmHg 89%
07:00 -2°C° 0 mm 4 m/s 694 mmHg 90%
08:00 -2°C° 0 mm 4 m/s 694 mmHg 90%
09:00 -1°C° 0 mm 4 m/s 694 mmHg 92%
10:00 0°C° 0 mm 4 m/s 694 mmHg 92%
11:00 +1°C° 0 mm 4 m/s 694 mmHg 92%
12:00 +2°C° 0 mm 6 m/s 694 mmHg 91%
13:00 +2°C° 0 mm 6 m/s 694 mmHg 92%
14:00 +2°C° 0 mm 5 m/s 694 mmHg 92%
15:00 +3°C° 0 mm 4 m/s 695 mmHg 93%
16:00 +3°C° 0 mm 4 m/s 695 mmHg 95%
17:00 +2°C° 0 mm 3 m/s 695 mmHg 96%
18:00 +2°C° 0 mm 3 m/s 695 mmHg 97%
19:00 +2°C° 0 mm 3 m/s 695 mmHg 97%
20:00 +1°C° 0 mm 3 m/s 696 mmHg 98%
21:00 +1°C° 0 mm 3 m/s 696 mmHg 99%
22:00 +3°C° 0 mm 2 m/s 695 mmHg 98%
23:00 +3°C° 0 mm 2 m/s 696 mmHg 98%

13 Março, Sábado

Tempo Temperatura Precipitação Vento Pressão Humidade
00:00 +4°C° 0 mm 1 m/s 696 mmHg 99%
01:00 +4°C° 0 mm 1 m/s 696 mmHg 97%
02:00 +3°C° 0 mm 1 m/s 696 mmHg 96%
03:00 +3°C° 0 mm 1 m/s 696 mmHg 95%
04:00 +3°C° 0 mm 1 m/s 695 mmHg 96%
05:00 +3°C° 0 mm 1 m/s 695 mmHg 96%
06:00 +3°C° 0 mm 1 m/s 695 mmHg 96%
07:00 +2°C° 0 mm 2 m/s 695 mmHg 96%
08:00 +2°C° 0 mm 2 m/s 695 mmHg 100%
09:00 +4°C° 0 mm 1 m/s 695 mmHg 100%
10:00 +4°C° 0 mm 2 m/s 695 mmHg 98%
11:00 +3°C° 0.3 mm 3 m/s 694 mmHg 100%
12:00 +4°C° 0.3 mm 3 m/s 694 mmHg 100%
13:00 +5°C° 0 mm 4 m/s 693 mmHg 97%
14:00 +5°C° 0.1 mm 3 m/s 693 mmHg 99%
15:00 +5°C° 0 mm 4 m/s 692 mmHg 93%
16:00 +4°C° 0 mm 4 m/s 692 mmHg 96%
17:00 +3°C° 0 mm 4 m/s 692 mmHg 99%
18:00 +4°C° 0 mm 2 m/s 691 mmHg 98%
19:00 +4°C° 0 mm 2 m/s 692 mmHg 97%
20:00 +4°C° 0 mm 1 m/s 692 mmHg 100%
21:00 +2°C° 0 mm 3 m/s 691 mmHg 100%
22:00 +1°C° 0 mm 3 m/s 692 mmHg 100%
23:00 0°C° 0 mm 3 m/s 692 mmHg 100%
Mostrar mais

Necessitamos do seu Consentimento

A Meteoprog e os seus Fornecedores de Serviços podem armazenar e aceder a dados pessoais como cookies, identificadores do dispositivo ou outras tecnologias semelhantes existentes no seu dispositivo e processar estes dados para personalizar conteúdos e anúncios, assim como funcionalidades nas redes sociais e análise de tráfego.

  • Armazenar e/ou aceder a informações no seu dispositivo

    Os cookies, identificadores do dispositivo ou outras informações podem ser armazenados ou acedidos no seu dispositivo, para os fins acima indicados.

  • Anúncios e conteúdos personalizados, medição de anúncios e conteúdos, dados sobre o público-alvo e desenvolvimento de produtos

    Os anúncios e os conteúdos podem ser personalizados com base num perfil. Podem ser adicionados dados adicionais para uma maior personalização dos anúncios e dos conteúdos. A eficácia dos anúncios e dos conteúdos pode ser medida. Podem ser obtidas informações sobre o público que visualizou os anúncios e os conteúdos. Estes dados podem ser usados para desenvolver ou melhorar sistemas, softwares ou a experiência do utilizador.

Ao clicar em "Eu concordo”, permitirá o uso de cookies, identificadores do dispositivo e web beacons mencionados ou outras tecnologias semelhantes. As configurações do navegador do seu dispositivo podem ser alteradas.

Para certos fins, podem ser invocados interesses legítimos ao invés de consentimento. Pode ler mais informação sobre este assunto na nossa Política de Privacidade e Cookies.